Regional Weather Roundup
Issued by NWS

Home | Current Version | Previous Version | Graphics & Text | Print | Product List | Glossary On
Versions: 1 2 3 4 5 6 7 8 9 10 11 12 13 14 15 16 17 18 19 20 21 22 23 24 25 26 27 28 29 30 31 32 33 34 35 36 37 38 39 40 41 42 43 44 45 46 47 48 49 50
000
ASUS43 KMKX 301500
RWRWI

WISCONSIN REGIONAL WEATHER ROUNDUP
NATIONAL WEATHER SERVICE MILWAUKEE/SULLIVAN WI
1000 AM CDT THU OCT 30 2014

NOTE: "FAIR" INDICATES FEW OR NO CLOUDS BELOW 12,000 FEET WITH NO
SIGNIFICANT WEATHER AND/OR OBSTRUCTIONS TO VISIBILITY.

WIZ001-002-006>008-014>016-023>028-301600-
NORTHWEST WISCONSIN

CITY           SKY/WX    TMP DP  RH WIND       PRES   REMARKS
SUPERIOR ARPT  CLOUDY    38  34  87 W3        30.09R
ASHLAND        CLOUDY    39  33  79 W6        30.08R WCI  35
HAYWARD        CLOUDY    38  32  79 CALM      30.08R
SIREN          CLOUDY    38  34  87 CALM      30.08S
CUMBERLAND     CLOUDY    36  32  87 CALM      30.07S
RICE LAKE      CLOUDY    37  34  91 CALM      30.09R
CHETEK         CLOUDY    37  34  87 CALM      30.08R
LADYSMITH      CLOUDY    37  35  90 CALM      30.08S
EAU CLAIRE     NOT AVBL
MENOMONIE      CLOUDY    39  35  84 CALM      30.07S
NEW RICHMOND   CLOUDY    40  34  81 CALM      30.07R
OSCEOLA        CLOUDY    41  35  81 CALM      30.11R
$$

WIZ003>005-009-010-017-018-301600-
NORTH CENTRAL WISCONSIN

CITY           SKY/WX    TMP DP  RH WIND       PRES   REMARKS
MANITOWISH WTR CLOUDY    36  32  87 W7        30.04S WCI  30
ARBOR VITAE    CLOUDY    39  34  82 NW3       30.03F
WOODRUFF       CLOUDY    39  34  82 NW3       30.03F
RHINELANDER    CLOUDY    37  31  78 W7        30.05R WCI  32
EAGLE RIVER    CLOUDY    37  32  82 CALM      30.03S
LAND O LAKES   CLOUDY    37  34  89 CALM      30.03F
PHILLIPS       CLOUDY    36  32  86 CALM      30.05S
TOMAHAWK       CLOUDY    36  32  85 CALM      30.06R
MEDFORD        CLOUDY    35  32  91 CALM      30.06R
MERRILL        CLOUDY    35  33  93 W5        30.07R WCI  31
$$

WIZ029-030-035-036-043>047-301600-
CENTRAL WISCONSIN

CITY           SKY/WX    TMP DP  RH WIND       PRES   REMARKS
WAUSAU         CLOUDY    37  34  89 CALM      30.06S
MOSINEE        CLOUDY    36  36 100 SW3       30.07S
MARSHFIELD     CLOUDY    40  35  83 SW3       30.06S
STEVENS POINT  PTSUNNY   36  33  88 SW5       30.08S WCI  32
WAUPACA        CLOUDY    38  37  94 CALM      30.09S
WAUTOMA        NOT AVBL
WISC RAPIDS    CLOUDY    40  35  83 W3        30.09S
CAMP DOUGLAS   NOT AVBL
$$

WIZ011>013-019>022-031-037>040-048>050-301600-
NORTHEAST WISCONSIN

CITY           SKY/WX    TMP DP  RH WIND       PRES   REMARKS
ANTIGO         CLOUDY    36  33  91 W5        30.05S WCI  32
SHAWANO        CLOUDY    40  35  80 CALM      30.08F
OCONTO         CLOUDY    41  36  82 W3        30.08R
STURGEON BAY   CLOUDY    43  36  75 W7        30.08S
GREEN BAY      CLOUDY    43  37  79 VRB3      30.08S
MANITOWOC      NOT AVBL
APPLETON       PTSUNNY   39  34  81 SW8       30.08F WCI  34
CLINTONVILLE   CLOUDY    37  34  87 SW3       30.08S
OSHKOSH        PTSUNNY   40  35  83 SW5       30.08F
$$

WIZ032>034-041-042-053>061-301600-
SOUTHWEST WISCONSIN

CITY           SKY/WX    TMP DP  RH WIND       PRES   REMARKS
LA CROSSE      CLOUDY    42  36  79 S6        30.08F
SPARTA         CLOUDY    37  35  92 CALM      30.10R
VIROQUA        CLOUDY    42  35  75 S5        30.07F
BOSCOBEL       PTSUNNY   38  35  89 CALM      30.11F
PRAIRIE DU CHI CLOUDY    39  34  83 CALM      30.10S
PLATTEVILLE    CLOUDY    39  36  87 CALM      30.11S
$$

WIZ056-057-062-063-064-067-068-301600-
SOUTH CENTRAL WISCONSIN

CITY           SKY/WX    TMP DP  RH WIND       PRES   REMARKS
REEDSBURG      CLOUDY    36  35  94 CALM      30.09S
BARABOO/DELLS  CLOUDY    39  34  82 CALM      30.09S
LONE ROCK      NOT AVBL
MINERAL POINT  CLOUDY    41  34  75 CALM      30.09S
MADISON        CLOUDY    43  34  70 SW5       30.10S
MIDDLETON      CLOUDY    42  34  72 CALM      30.10S
WATERTOWN      PTSUNNY   38  36  91 CALM      30.09F
MONROE         PTSUNNY   39  34  81 SW6       30.09F WCI  35
JANESVILLE     CLOUDY    41  36  81 S3        30.10F
$$

WIZ051-052-058>065-066-070>072-301600-
SOUTHEAST WISCONSIN

CITY           SKY/WX    TMP DP  RH WIND       PRES   REMARKS
MILWAUKEE      PTSUNNY   42  34  73 SW7       30.11F
WAUKESHA       MOSUNNY   37  34  87 CALM      30.12S
MILWAUKEE/TIMM CLOUDY    39  32  75 CALM      30.12S
RACINE         CLOUDY    43  35  73 SW6       30.13F
BURLINGTON     PTSUNNY   38  35  89 SW3       30.12S
KENOSHA        CLOUDY    42  36  79 SW6       30.12F
FOND DU LAC    PTSUNNY   41  35  79 SW6       30.09F
SHEBOYGAN      CLOUDY    43  35  73 SW7       30.09F
WEST BEND      PTSUNNY   41  34  75 SW5       30.10S
JUNEAU         PTSUNNY   37  34  89 S3        30.10F
$$

LSZ147-162-301600-
LAKE SUPERIOR

STATION/POSITION TIME  TEMP    WIND        PRES    WAVE
                       AIR SEA DIR/SP/G            HT/PER
                 (UTC) (F)     (DEG/KT/KT) (MB)    (FT/S)
W MID LAKE BUOY  1350   40 45  240/  8/ 10 1017.4R   2/ 4
DEVILS ISLAND    1400   40     280/  9/ 11 1018.3R
PORT WING        1400   42     290/ 11/ 13 1018.3R
SAXON HARBOR     1400   40     210/  4/  6 1017.9
$$

LMZ867-665-643>646-301600-
LAKE MICHIGAN

STATION/POSITION TIME  TEMP    WIND        PRES    WAVE
                       AIR SEA DIR/SP/G            HT/PER
                 (UTC) (F)     (DEG/KT/KT) (MB)    (FT/S)
CHAMBERS ISLAND  1400   43     220/  4/  9 1018.3S
N MID LAKE BUOY  1350   43 51  170/  4/  6 1018.7S   0
NORTHPORT PIER   1400   44      CALM  /  2 1017.9F
KEWAUNEE LAKESHO 1400   40     230/  4/  5 1017.6F
SHEBOYGAN LAKESH 1400   42 50  240/  6/  7 1019.8F
PORT WASHINGTON  1400   43     270/  4/  6 1020.0S
ATWATER BUOY     1400   42     240/ 10/ 14 1020.6R
MILWAUKEE LAKESH 1400   42     260/  6/  7   N/A
S MID LAKE BUOY  1350   48 53  230/ 10/ 12 1020.3R   1/ 5
KENOSHA   LAKESH 1400   40     240/  6/  9 1020.3R
$$

TC  - TEMPERATURE IN CELSIUS
VSB - VISIBILITY IN STATUTE MILES
WCI - WIND CHILL INDEX
HX  - HEAT INDEX




USA.gov is the U.S. government's official web portal to all federal, state and local government web resources and services.